ATLAS 2A CENTAUR R/B - Orbit

View from above orbital plane
View from above orbital plane
View from above satellite
View from above satellite

Ground track
Ground track

The orbit data is extracted from the following two-line orbital elements,

1 26389U 00034B   13167.85735831  .00006499  00000-0  10192-2 0  5622
2 26389 026.8554 224.6844 5718431 305.4962 098.4519 04.47934548178244
Epoch (UTC): 16 June 2013 20:34:35
Eccentricity: 0.5718431
inclination: 26.8554°
perigee height: 277 km
apogee height: 18056 km
right ascension of ascending node: 224.6844°
argument of perigee: 305.4962°
revolutions per day: 4.47934548
mean anomaly at epoch: 98.4519°
orbit number at epoch: 17824

The dashed part of the orbit path shows where the satellite is in the earth's shadow,  

Developed and maintained by Chris Peat, Heavens-Above GmbH. Please read the updated FAQ before sending e-mail. Imprint. DLR